"SCLK","SCET","ORBIT_NUMBER","ALTITUDE","LATITUDE_PLANEOGRAPHIC","LATITUDE_PLANETOCENTRIC","LOCAL_TRUE_SOLAR_TIME","WEST_LONGITUDE","X_SUN_DIR_DISTANCE","RHO_PRP_SUN_DISTANCE","SOLAR_ZENITH_ANGLE","ELECTRON_PLASMA_FREQUENCY","FPE_QUALITY","FPP_VERIFICATION","ELECTRON_PLASMA_DENSITY","ELECTRON_CYCLOTRON_PERIOD","FCP_QUALITY","B_MAGNITUDE"
"1/0366303575.30435",2014-12-10T14:59:39.450,13887,771.00,33.37,33.08,"00:55:19",67.25,0.620,1.060,59.96,,,,,1.15e+00,1,3.12e+01
"1/0366303583.00485",2014-12-10T14:59:46.993,13887,779.00,32.98,32.69,"00:55:27",67.25,0.630,1.060,59.60,,,,,1.22e+00,1,2.93e+01
"1/0366303590.36071",2014-12-10T14:59:54.536,13887,787.00,32.58,32.29,"00:55:34",67.25,0.630,1.050,59.24,,,,,1.23e+00,1,2.91e+01
"1/0366303598.06121",2014-12-10T15:00:02.079,13887,794.00,32.18,31.90,"00:55:41",67.25,0.640,1.050,58.88,,,,,1.29e+00,1,2.76e+01
"1/0366303605.41707",2014-12-10T15:00:09.622,13887,802.00,31.79,31.51,"00:53:31",67.26,0.650,1.050,58.52,,,,,1.11e+00,1,3.21e+01
"1/0366303613.11823",2014-12-10T15:00:17.166,13887,810.00,31.40,31.12,"00:53:39",67.26,0.660,1.050,58.16,,,,,1.15e+00,1,3.12e+01
"1/0366303620.47409",2014-12-10T15:00:24.709,13887,818.00,31.01,30.73,"00:53:46",67.26,0.660,1.050,57.81,,,,,1.15e+00,1,3.09e+01
"1/0366303628.17459",2014-12-10T15:00:32.252,13887,826.00,30.62,30.34,"00:53:53",67.26,0.670,1.040,57.46,,,,,1.10e+00,1,3.23e+01
"1/0366303635.53045",2014-12-10T15:00:39.795,13887,835.00,30.23,29.96,"00:54:01",67.26,0.680,1.040,57.11,,,,,1.21e+00,1,2.95e+01
"1/0366303643.23095",2014-12-10T15:00:47.338,13887,843.00,29.84,29.57,"00:51:50",67.27,0.690,1.040,56.76,,,,,1.23e+00,1,2.91e+01
"1/0366303650.58746",2014-12-10T15:00:54.882,13887,851.00,29.46,29.19,"00:51:58",67.27,0.700,1.040,56.41,,,,,1.22e+00,1,2.93e+01
"1/0366303658.28796",2014-12-10T15:01:02.425,13887,859.00,29.07,28.81,"00:52:05",67.27,0.700,1.040,56.06,,,,,1.10e+00,1,3.23e+01
"1/0366303665.64382",2014-12-10T15:01:09.968,13887,868.00,28.69,28.43,"00:49:55",67.28,0.710,1.030,55.72,,,,,1.29e+00,1,2.76e+01
"1/0366303673.34432",2014-12-10T15:01:17.511,13887,876.00,28.31,28.05,"00:50:02",67.28,0.720,1.030,55.37,,,,,1.23e+00,2,2.91e+01
"1/0366303681.04482",2014-12-10T15:01:25.054,13887,885.00,27.93,27.68,"00:47:52",67.29,0.730,1.030,55.03,,,,,1.15e+00,1,3.12e+01
"1/0366303688.40134",2014-12-10T15:01:32.598,13887,893.00,27.55,27.30,"00:47:59",67.29,0.730,1.030,54.69,,,,,1.12e+00,1,3.19e+01
"1/0366303696.10184",2014-12-10T15:01:40.141,13887,902.00,27.18,26.93,"00:45:49",67.30,0.740,1.020,54.35,,,,,1.03e+00,1,3.47e+01
"1/0366303703.45770",2014-12-10T15:01:47.684,13887,910.00,26.80,26.55,"00:45:57",67.30,0.750,1.020,54.02,,,,,9.88e-01,1,3.61e+01
"1/0366303711.15820",2014-12-10T15:01:55.227,13887,919.00,26.43,26.18,"00:43:46",67.31,0.760,1.020,53.68,,,,,1.11e+00,1,3.21e+01
"1/0366303718.51472",2014-12-10T15:02:02.771,13887,928.00,26.06,25.82,"00:43:54",67.31,0.760,1.020,53.35,,,,,1.29e+00,1,2.78e+01
"1/0366303726.21522",2014-12-10T15:02:10.314,13887,937.00,25.68,25.45,"00:41:44",67.32,0.770,1.020,53.02,,,,,1.26e+00,1,2.83e+01
"1/0366303733.57108",2014-12-10T15:02:17.857,13887,945.00,25.32,25.08,"00:39:33",67.33,0.780,1.010,52.69,,,,,1.15e+00,1,3.12e+01
"1/0366303741.27158",2014-12-10T15:02:25.400,13887,954.00,24.95,24.72,"00:39:41",67.33,0.790,1.010,52.36,,,,,1.07e+00,1,3.33e+01
"1/0366303748.62744",2014-12-10T15:02:32.943,13887,963.00,24.58,24.35,"00:37:31",67.34,0.790,1.010,52.03,,,,,1.32e+00,1,2.71e+01
"1/0366303756.32859",2014-12-10T15:02:40.487,13887,972.00,24.22,23.99,"00:35:20",67.35,0.800,1.010,51.71,,,,,1.18e+00,2,3.03e+01
"1/0366303764.02909",2014-12-10T15:02:48.030,13887,981.00,23.85,23.63,"00:33:10",67.36,0.810,1.000,51.39,,,,,1.10e+00,1,3.26e+01
"1/0366303771.38495",2014-12-10T15:02:55.573,13887,990.00,23.49,23.27,"00:33:18",67.36,0.810,1.000,51.06,,,,,1.15e+00,1,3.12e+01
"1/0366303779.08545",2014-12-10T15:03:03.116,13887,999.00,23.13,22.92,"00:31:07",67.37,0.820,1.000,50.75,,,,,1.48e+00,1,2.42e+01
"1/0366303786.44131",2014-12-10T15:03:10.659,13887,1009.00,22.77,22.56,"00:28:57",67.38,0.830,1.000,50.43,,,,,1.49e+00,1,2.40e+01
"1/0366303794.14247",2014-12-10T15:03:18.203,13887,1018.00,22.42,22.21,"00:26:47",67.39,0.840,0.990,50.11,,,,,1.34e+00,1,2.67e+01
"1/0366303801.49833",2014-12-10T15:03:25.746,13887,1027.00,22.06,21.86,"00:24:37",67.40,0.840,0.990,49.80,,,,,1.61e+00,1,2.22e+01
"1/0366303809.19883",2014-12-10T15:03:33.289,13887,1036.00,21.71,21.50,"00:22:27",67.41,0.850,0.990,49.48,,,,,1.48e+00,1,2.42e+01
"1/0366303816.55469",2014-12-10T15:03:40.832,13887,1046.00,21.36,21.15,"00:22:34",67.41,0.860,0.990,49.17,,,,,1.21e+00,1,2.95e+01
"1/0366303824.25519",2014-12-10T15:03:48.375,13887,1055.00,21.00,20.81,"00:20:24",67.42,0.860,0.980,48.86,,,,,1.01e+00,1,3.53e+01
"1/0366303831.61171",2014-12-10T15:03:55.919,13887,1064.00,20.65,20.46,"00:18:14",67.43,0.870,0.980,48.56,,,,,1.15e+00,1,3.12e+01
"1/0366303847.01271",2014-12-10T15:04:11.005,13887,1083.00,19.96,19.77,"00:13:53",67.45,0.890,0.980,47.95,,,,,1.38e+00,1,2.59e+01
"1/0366303862.06907",2014-12-10T15:04:26.091,13887,1103.00,19.27,19.09,"00:09:33",67.47,0.900,0.970,47.34,,,,,2.21e+00,1,1.62e+01
"1/0366303869.42558",2014-12-10T15:04:33.635,13887,1112.00,18.93,18.75,"00:07:23",67.48,0.910,0.970,47.05,,,,,1.26e+00,1,2.83e+01
"1/0366303877.12608",2014-12-10T15:04:41.178,13887,1122.00,18.59,18.41,"00:05:13",67.49,0.910,0.970,46.75,,,,,1.20e+00,1,2.99e+01
"1/0366303884.48194",2014-12-10T15:04:48.721,13887,1132.00,18.25,18.07,"00:03:02",67.50,0.920,0.960,46.45,,,,,1.16e+00,1,3.07e+01
"1/0366303892.18244",2014-12-10T15:04:56.264,13887,1141.00,17.91,17.74,"00:00:52",67.51,0.930,0.960,46.16,,,,,1.31e+00,1,2.72e+01
"1/0366303899.53830",2014-12-10T15:05:03.807,13887,1151.00,17.57,17.41,"23:58:42",67.52,0.930,0.960,45.87,,,,,1.22e+00,1,2.93e+01
"1/0366303907.23946",2014-12-10T15:05:11.351,13887,1161.00,17.24,17.07,"23:54:14",67.54,0.940,0.960,45.58,,,,,1.40e+00,1,2.56e+01
"1/0366303914.59532",2014-12-10T15:05:18.894,13887,1171.00,16.90,16.74,"23:52:04",67.55,0.950,0.950,45.29,,,,,1.12e+00,2,3.19e+01
"1/0366303922.29582",2014-12-10T15:05:26.437,13887,1181.00,16.57,16.41,"23:49:54",67.56,0.950,0.950,45.00,,,,,1.64e+00,1,2.17e+01
"1/0366303929.65168",2014-12-10T15:05:33.980,13887,1191.00,16.24,16.09,"23:47:44",67.57,0.960,0.950,44.72,,,,,1.50e+00,1,2.38e+01
"1/0366303937.35218",2014-12-10T15:05:41.523,13887,1201.00,15.91,15.76,"23:45:34",67.58,0.970,0.940,44.43,,,,,1.71e+00,1,2.09e+01
"1/0366303945.05334",2014-12-10T15:05:49.067,13887,1211.00,15.58,15.44,"23:43:24",67.59,0.980,0.940,44.15,,,,,1.64e+00,1,2.17e+01
"1/0366303952.40920",2014-12-10T15:05:56.610,13887,1221.00,15.26,15.11,"23:41:13",67.60,0.980,0.940,43.87,,,,,1.63e+00,1,2.20e+01
"1/0366303960.10970",2014-12-10T15:06:04.153,13887,1231.00,14.93,14.79,"23:36:46",67.62,0.990,0.940,43.60,,,,,1.66e+00,1,2.15e+01
"1/0366303967.46556",2014-12-10T15:06:11.696,13887,1241.00,14.61,14.47,"23:34:36",67.63,1.000,0.930,43.32,,,,,1.56e+00,1,2.29e+01
"1/0366304012.63529",2014-12-10T15:06:56.955,13887,1302.00,12.70,12.58,"23:19:17",67.70,1.030,0.920,41.70,,,,,1.40e+00,1,2.56e+01
"1/0366304020.33645",2014-12-10T15:07:04.499,13887,1312.00,12.38,12.26,"23:14:49",67.72,1.040,0.920,41.43,,,,,1.43e+00,1,2.50e+01
"1/0366304035.39281",2014-12-10T15:07:19.585,13887,1333.00,11.76,11.65,"23:10:29",67.74,1.050,0.910,40.91,,,,,1.71e+00,2,2.09e+01
"1/0366304043.09331",2014-12-10T15:07:27.128,13887,1344.00,11.45,11.34,"23:06:01",67.76,1.060,0.910,40.65,,,,,2.14e+00,1,1.67e+01
"1/0366304065.50619",2014-12-10T15:07:49.758,13887,1375.00,10.53,10.43,"22:57:13",67.80,1.080,0.900,39.89,,,,,2.18e+00,1,1.64e+01
"1/0366304073.20669",2014-12-10T15:07:57.301,13887,1386.00,10.22,10.13,"22:55:03",67.81,1.090,0.900,39.63,,,,,1.29e+00,1,2.76e+01
"1/0366304080.56255",2014-12-10T15:08:04.844,13887,1396.00,9.92,9.83,"22:50:35",67.83,1.090,0.890,39.38,,,,,1.44e+00,2,2.49e+01
"1/0366304088.26305",2014-12-10T15:08:12.387,13887,1407.00,9.62,9.53,"22:48:25",67.84,1.100,0.890,39.14,,,,,1.87e+00,1,1.91e+01
"1/0366304111.02056",2014-12-10T15:08:35.017,13887,1439.00,8.72,8.64,"22:39:37",67.88,1.120,0.880,38.40,,,,,1.66e+00,2,2.15e+01
